FENGYUN 1C DEB

Satellite information

Favourite Embed

Satellite Type and Status

DEBRISIN ORBIT

Key statistics

Satellite FENGYUN 1C DEB at a glance.

Uptime

9715

Days in orbit

Revolutions

≈ 14.1

Per day

Orbit

SSO

Sun Synchronous Orbit

Inclination

99.0

Latest

Satellite identification and parameters

Extended collection of information and parameters for FENGYUN 1C DEB.

Object identification

Identified? True

Debris? True

Object name: FENGYUN 1C DEB

International designator: 1999-025XZ

Object number (NORAD): 30264

Object ID (CCSDS): 30264

Country: PEOPLES REPUBLIC OF CHINA (PRC)

Current information (Y/N): Y

RCS size: SMALL

Orbital parameters

Period: 102.299 minutes

Inclination: 98.9702 deg

SMA: 7245.587 km

Apoapsis: 945.115 km

Periapsis: 789.789 km

RAAN: 42.7717 deg

Eccentricy: 0.01071869

Argument of periapsis: 284.8151 deg

Mean anomaly: 229.7604 deg

Mean motion: 14.07642595 rev/day

Mean motion (dot): 0.00002555 rev/day2

B* drag term: 0.0014603692 1/REarth

Two-line elements (TLE)

Creation date: Dec. 14, 2025, 3:07 a.m.

Reference frame: TEME

Reference center: EARTH

Epoch: Dec. 13, 2025, 3:36 p.m. UTC

TLE line 0: 0 FENGYUN 1C DEB

TLE line 1: 1 30264U 99025XZ 25347.65042801 .00002555 00000-0 14604-2 0 9991

TLE line 2: 2 30264 98.9702 42.7717 0107187 284.8151 229.7604 14.07642595965703

Live tracking on map

Real-time ground track for satellite FENGYUN 1C DEB.

In-orbit conjunctions

A list of the most updated potential collisions computed for object FENGYUN 1C DEB.

Target Orbit TCA Probability of collision Miss distance Type
COSMOS 1375 DEB LEO 2025-03-03 14:51:30 0.0001449612 222.0 (m) DEBRIS
COSMOS 928 LEO 2024-11-29 16:18:17 0.000102295 320.0 (m) PAYLOAD

Associated space launch

Chinese polar orbiting meteorological satellite

FENGYUN 1C DEB was lifted into orbit during the mission ‘Long March 4B | Feng Yun 1C’, on board a Long March 4B space rocket.

The launch took place on May 10, 1999, 1:33 a.m. from Launch Complex 7.

For more information about the launch, click the button.

Launch to space Long March 4B | Feng Yun 1C
Long March 4B | Feng Yun 1C

Agency: N/A

Status: Launch Successful

Launch date: May 10, 1999, 1:33 a.m. UTC

Rocket: Long March 4B

Launch pad: Launch Complex 7

Location: Taiyuan Satellite Launch Center, People's Republic of China

...

Latest news about this satellite

There are no fresh news available about this satellite. Check back as we update our databases every day.


Newsletter sign-up

Weekly statistics, charts and insights to help you stay on top of the space industry.